Time,TemperatureF,DewpointF,PressureIn,WindDirection,WindDirectionDegrees,WindSpeedMPH,WindSpeedGustMPH,Humidity,HourlyPrecipIn,Conditions,Clouds,dailyrainin,SoftwareType,DateUTC
2013-02-19 00:01:00,40.0,40.0,-100.00,East,95,2.0,6.0,99,-99.99,,,-99.99,,2013-02-19 08:01:00,
2013-02-19 00:11:00,40.0,40.0,-100.00,ENE,70,3.0,5.0,99,-99.99,,,-99.99,,2013-02-19 08:11:00,
2013-02-19 00:21:00,40.0,40.0,-100.00,ENE,67,3.0,3.0,99,-99.99,,,-99.99,,2013-02-19 08:21:00,
2013-02-19 00:31:00,40.0,40.0,-100.00,ESE,107,2.0,2.0,99,-99.99,,,-99.99,,2013-02-19 08:31:00,
2013-02-19 00:42:00,40.0,40.0,-100.00,SE,131,1.0,3.0,99,-99.99,,,-99.99,,2013-02-19 08:42:00,
2013-02-19 00:52:00,40.0,40.0,-100.00,SE,143,2.0,3.0,99,-99.99,,,-99.99,,2013-02-19 08:52:00,
2013-02-19 01:01:00,40.0,40.0,-100.00,SSW,193,1.0,5.0,99,-99.99,,,-99.99,,2013-02-19 09:01:00,
2013-02-19 01:11:00,40.0,40.0,-100.00,SSW,211,2.0,7.0,99,-99.99,,,-99.99,,2013-02-19 09:11:00,
2013-02-19 01:21:00,39.0,39.0,-100.00,SSW,194,4.0,7.0,99,-99.99,,,-99.99,,2013-02-19 09:21:00,
2013-02-19 01:31:00,39.0,39.0,-100.00,SSW,213,4.0,4.0,99,-99.99,,,-99.99,,2013-02-19 09:31:00,
2013-02-19 01:41:00,39.0,38.0,-100.00,SW,231,2.0,6.0,98,-99.99,,,-99.99,,2013-02-19 09:41:00,
2013-02-19 01:52:00,39.0,38.0,-100.00,SSW,195,3.0,5.0,98,-99.99,,,-99.99,,2013-02-19 09:52:00,
2013-02-19 02:01:00,39.0,38.0,-100.00,South,187,2.0,4.0,98,-99.99,,,-99.99,,2013-02-19 10:01:00,
2013-02-19 02:11:00,39.0,38.0,-100.00,South,179,2.0,3.0,98,-99.99,,,-99.99,,2013-02-19 10:11:00,
2013-02-19 02:21:00,39.0,38.0,-100.00,SSE,151,2.0,5.0,98,-99.99,,,-99.99,,2013-02-19 10:21:00,
2013-02-19 02:31:00,39.0,38.0,-100.00,SSE,149,2.0,4.0,97,-99.99,,,-99.99,,2013-02-19 10:31:00,
2013-02-19 02:41:00,39.0,38.0,-100.00,South,184,2.0,5.0,97,-99.99,,,-99.99,,2013-02-19 10:41:00,
2013-02-19 02:51:00,39.0,38.0,-100.00,South,188,2.0,5.0,97,-99.99,,,-99.99,,2013-02-19 10:51:00,
2013-02-19 03:01:00,39.0,38.0,-100.00,SSE,154,3.0,3.0,96,-99.99,,,-99.99,,2013-02-19 11:01:00,
2013-02-19 03:11:00,39.0,38.0,-100.00,South,186,1.0,2.0,96,-99.99,,,-99.99,,2013-02-19 11:11:00,
2013-02-19 03:21:00,39.0,38.0,-100.00,South,184,1.0,4.0,96,-99.99,,,-99.99,,2013-02-19 11:21:00,
2013-02-19 03:31:00,39.0,38.0,-100.00,SSE,158,2.0,6.0,95,-99.99,,,-99.99,,2013-02-19 11:31:00,
2013-02-19 03:42:00,39.0,38.0,-100.00,SSE,154,3.0,6.0,95,-99.99,,,-99.99,,2013-02-19 11:42:00,
2013-02-19 03:52:00,39.0,37.0,-100.00,SSE,156,4.0,5.0,92,-99.99,,,-99.99,,2013-02-19 11:52:00,
2013-02-19 04:01:00,39.0,37.0,-100.00,South,187,3.0,5.0,91,-99.99,,,-99.99,,2013-02-19 12:01:00,
2013-02-19 04:12:00,39.0,37.0,-100.00,SSW,200,2.0,4.0,93,-99.99,,,-99.99,,2013-02-19 12:12:00,
2013-02-19 04:21:00,39.0,37.0,-100.00,SSW,200,2.0,5.0,94,-99.99,,,-99.99,,2013-02-19 12:21:00,
2013-02-19 04:32:00,38.0,36.0,-100.00,SSW,200,2.0,5.0,94,-99.99,,,-99.99,,2013-02-19 12:32:00,
2013-02-19 04:42:00,38.0,36.0,-100.00,SSW,194,2.0,5.0,92,-99.99,,,-99.99,,2013-02-19 12:42:00,
2013-02-19 04:52:00,38.0,36.0,-100.00,South,188,3.0,5.0,93,-99.99,,,-99.99,,2013-02-19 12:52:00,
2013-02-19 05:01:00,38.0,36.0,-100.00,SSW,194,2.0,4.0,93,-99.99,,,-99.99,,2013-02-19 13:01:00,
2013-02-19 05:11:00,38.0,36.0,-100.00,South,188,2.0,4.0,93,-99.99,,,-99.99,,2013-02-19 13:11:00,
2013-02-19 05:22:00,38.0,36.0,-100.00,South,173,2.0,4.0,92,-99.99,,,-99.99,,2013-02-19 13:22:00,
2013-02-19 05:31:00,38.0,35.0,-100.00,SSE,162,2.0,4.0,89,-99.99,,,-99.99,,2013-02-19 13:31:00,
2013-02-19 05:41:00,39.0,36.0,-100.00,SSE,148,2.0,5.0,88,-99.99,,,-99.99,,2013-02-19 13:41:00,
2013-02-19 05:52:00,39.0,35.0,-100.00,SSW,203,1.0,5.0,87,-99.99,,,-99.99,,2013-02-19 13:52:00,
2013-02-19 06:01:00,38.0,35.0,-100.00,SW,216,2.0,7.0,88,-99.99,,,-99.99,,2013-02-19 14:01:00,
2013-02-19 06:11:00,38.0,35.0,-100.00,SSW,206,4.0,6.0,90,-99.99,,,-99.99,,2013-02-19 14:11:00,
2013-02-19 06:21:00,38.0,34.0,-100.00,SW,220,3.0,7.0,86,-99.99,,,-99.99,,2013-02-19 14:21:00,
2013-02-19 06:32:00,39.0,34.0,-100.00,SW,223,4.0,9.0,82,-99.99,,,-99.99,,2013-02-19 14:32:00,
2013-02-19 06:41:00,39.0,34.0,-100.00,SW,216,5.0,8.0,82,-99.99,,,-99.99,,2013-02-19 14:41:00,
2013-02-19 06:52:00,39.0,34.0,-100.00,SSW,205,4.0,5.0,83,-99.99,,,-99.99,,2013-02-19 14:52:00,
2013-02-19 07:01:00,39.0,35.0,-100.00,South,169,3.0,3.0,84,-99.99,,,-99.99,,2013-02-19 15:01:00,
2013-02-19 07:11:00,39.0,35.0,-100.00,SSE,149,1.0,5.0,84,-99.99,,,-99.99,,2013-02-19 15:11:00,
2013-02-19 07:21:00,38.0,34.0,-100.00,SSE,157,2.0,6.0,86,-99.99,,,-99.99,,2013-02-19 15:21:00,
2013-02-19 07:31:00,38.0,34.0,-100.00,SSE,153,3.0,4.0,87,-99.99,,,-99.99,,2013-02-19 15:31:00,
2013-02-19 07:42:00,38.0,34.0,-100.00,SSE,153,3.0,4.0,87,-99.99,,,-99.99,,2013-02-19 15:42:00,
2013-02-19 07:52:00,38.0,34.0,-100.00,SE,145,1.0,5.0,87,-99.99,,,-99.99,,2013-02-19 15:52:00,
2013-02-19 08:01:00,38.0,35.0,-100.00,SSE,162,2.0,5.0,89,-99.99,,,-99.99,,2013-02-19 16:01:00,
2013-02-19 08:11:00,38.0,35.0,-100.00,South,177,2.0,6.0,90,-99.99,,,-99.99,,2013-02-19 16:11:00,
2013-02-19 08:21:00,38.0,35.0,-100.00,SSE,162,3.0,6.0,90,-99.99,,,-99.99,,2013-02-19 16:21:00,
2013-02-19 08:31:00,38.0,35.0,-100.00,SSE,162,3.0,6.0,90,-99.99,,,-99.99,,2013-02-19 16:31:00,
2013-02-19 08:41:00,39.0,36.0,-100.00,South,171,3.0,7.0,88,-99.99,,,-99.99,,2013-02-19 16:41:00,
2013-02-19 08:51:00,39.0,35.0,-100.00,South,187,4.0,5.0,87,-99.99,,,-99.99,,2013-02-19 16:51:00,
2013-02-19 09:01:00,39.0,35.0,-100.00,South,180,3.0,5.0,87,-99.99,,,-99.99,,2013-02-19 17:01:00,
2013-02-19 09:11:00,39.0,36.0,-100.00,South,172,3.0,5.0,88,-99.99,,,-99.99,,2013-02-19 17:11:00,
2013-02-19 09:21:00,40.0,36.0,-100.00,South,169,2.0,5.0,86,-99.99,,,-99.99,,2013-02-19 17:21:00,
2013-02-19 09:31:00,40.0,36.0,-100.00,SSE,162,3.0,7.0,85,-99.99,,,-99.99,,2013-02-19 17:31:00,
2013-02-19 09:41:00,39.0,35.0,-100.00,SSE,153,3.0,7.0,86,-99.99,,,-99.99,,2013-02-19 17:41:00,
2013-02-19 09:52:00,40.0,36.0,-100.00,SSE,152,4.0,8.0,85,-99.99,,,-99.99,,2013-02-19 17:52:00,
2013-02-19 10:01:00,40.0,36.0,-100.00,South,185,4.0,7.0,84,-99.99,,,-99.99,,2013-02-19 18:01:00,
2013-02-19 10:11:00,40.0,36.0,-100.00,South,185,4.0,8.0,85,-99.99,,,-99.99,,2013-02-19 18:11:00,
2013-02-19 10:21:00,40.0,36.0,-100.00,South,174,4.0,7.0,86,-99.99,,,-99.99,,2013-02-19 18:21:00,
2013-02-19 10:31:00,40.0,36.0,-100.00,South,173,3.0,7.0,84,-99.99,,,-99.99,,2013-02-19 18:31:00,
2013-02-19 10:41:00,41.0,36.0,-100.00,SSW,196,4.0,7.0,82,-99.99,,,-99.99,,2013-02-19 18:41:00,
2013-02-19 10:51:00,41.0,35.0,-100.00,South,189,4.0,6.0,80,-99.99,,,-99.99,,2013-02-19 18:51:00,
2013-02-19 11:01:00,40.0,35.0,-100.00,South,183,3.0,6.0,82,-99.99,,,-99.99,,2013-02-19 19:01:00,
2013-02-19 11:11:00,41.0,35.0,-100.00,SSW,202,3.0,7.0,80,-99.99,,,-99.99,,2013-02-19 19:11:00,
2013-02-19 11:21:00,41.0,35.0,-100.00,SSW,205,4.0,11.0,80,-99.99,,,-99.99,,2013-02-19 19:21:00,
2013-02-19 11:31:00,40.0,35.0,-100.00,SW,216,6.0,10.0,83,-99.99,,,-99.99,,2013-02-19 19:31:00,
2013-02-19 11:41:00,40.0,35.0,-100.00,SW,224,7.0,9.0,82,-99.99,,,-99.99,,2013-02-19 19:41:00,
2013-02-19 11:51:00,41.0,35.0,-100.00,SW,224,6.0,10.0,79,-99.99,,,-99.99,,2013-02-19 19:51:00,
2013-02-19 12:01:00,42.0,35.0,-100.00,SW,226,6.0,11.0,76,-99.99,,,-99.99,,2013-02-19 20:01:00,
2013-02-19 12:11:00,41.0,34.0,-100.00,SW,215,7.0,11.0,77,-99.99,,,-99.99,,2013-02-19 20:11:00,
2013-02-19 12:21:00,41.0,36.0,-100.00,SSW,206,6.0,10.0,81,-99.99,,,-99.99,,2013-02-19 20:21:00,
2013-02-19 12:31:00,41.0,36.0,-100.00,SSW,212,5.0,10.0,82,-99.99,,,-99.99,,2013-02-19 20:31:00,
2013-02-19 12:41:00,41.0,36.0,-100.00,SW,222,6.0,13.0,82,-99.99,,,-99.99,,2013-02-19 20:41:00,
2013-02-19 12:52:00,41.0,36.0,-100.00,SW,226,9.0,12.0,83,-99.99,,,-99.99,,2013-02-19 20:52:00,
2013-02-19 13:01:00,41.0,36.0,-100.00,SW,228,9.0,13.0,82,-99.99,,,-99.99,,2013-02-19 21:01:00,
2013-02-19 13:11:00,42.0,37.0,-100.00,SW,232,9.0,13.0,81,-99.99,,,-99.99,,2013-02-19 21:11:00,
2013-02-19 13:21:00,42.0,36.0,-100.00,SW,227,8.0,17.0,79,-99.99,,,-99.99,,2013-02-19 21:21:00,
2013-02-19 13:31:00,42.0,36.0,-100.00,SW,230,11.0,16.0,78,-99.99,,,-99.99,,2013-02-19 21:31:00,
2013-02-19 13:42:00,42.0,36.0,-100.00,SW,230,11.0,16.0,78,-99.99,,,-99.99,,2013-02-19 21:42:00,
2013-02-19 13:51:00,42.0,36.0,-100.00,SW,229,11.0,14.0,79,-99.99,,,-99.99,,2013-02-19 21:51:00,
2013-02-19 14:01:00,41.0,36.0,-100.00,SW,225,9.0,12.0,83,-99.99,,,-99.99,,2013-02-19 22:01:00,
2013-02-19 14:11:00,42.0,37.0,-100.00,SW,229,8.0,10.0,83,-99.99,,,-99.99,,2013-02-19 22:11:00,
2013-02-19 14:21:00,42.0,38.0,-100.00,SW,232,7.0,10.0,86,-99.99,,,-99.99,,2013-02-19 22:21:00,
2013-02-19 14:31:00,41.0,38.0,-100.00,SW,223,7.0,10.0,90,-99.99,,,-99.99,,2013-02-19 22:31:00,
2013-02-19 14:41:00,41.0,39.0,-100.00,SW,232,7.0,12.0,94,-99.99,,,-99.99,,2013-02-19 22:41:00,
2013-02-19 14:51:00,41.0,40.0,-100.00,SW,227,7.0,16.0,96,-99.99,,,-99.99,,2013-02-19 22:51:00,
2013-02-19 15:01:00,41.0,40.0,-100.00,SW,226,10.0,17.0,96,-99.99,,,-99.99,,2013-02-19 23:01:00,
2013-02-19 15:11:00,41.0,40.0,-100.00,SW,232,11.0,15.0,96,-99.99,,,-99.99,,2013-02-19 23:11:00,
2013-02-19 15:21:00,40.0,39.0,-100.00,SW,231,10.0,15.0,96,-99.99,,,-99.99,,2013-02-19 23:21:00,
2013-02-19 15:31:00,40.0,39.0,-100.00,SW,232,9.0,16.0,96,-99.99,,,-99.99,,2013-02-19 23:31:00,
2013-02-19 15:41:00,40.0,39.0,-100.00,SW,232,11.0,16.0,97,-99.99,,,-99.99,,2013-02-19 23:41:00,
2013-02-19 15:52:00,40.0,39.0,-100.00,SW,230,10.0,20.0,97,-99.99,,,-99.99,,2013-02-19 23:52:00,
2013-02-19 16:01:00,40.0,39.0,-100.00,SW,228,12.0,18.0,98,-99.99,,,-99.99,,2013-02-20 00:01:00,
2013-02-19 16:11:00,40.0,39.0,-100.00,SW,234,12.0,14.0,98,-99.99,,,-99.99,,2013-02-20 00:11:00,
2013-02-19 16:21:00,40.0,39.0,-100.00,WSW,243,8.0,14.0,98,-99.99,,,-99.99,,2013-02-20 00:21:00,
2013-02-19 16:31:00,40.0,39.0,-100.00,WSW,241,7.0,16.0,98,-99.99,,,-99.99,,2013-02-20 00:31:00,
2013-02-19 16:41:00,39.0,38.0,-100.00,WSW,238,10.0,16.0,98,-99.99,,,-99.99,,2013-02-20 00:41:00,
2013-02-19 16:51:00,39.0,38.0,-100.00,SW,229,10.0,16.0,98,-99.99,,,-99.99,,2013-02-20 00:51:00,
2013-02-19 17:02:00,39.0,38.0,-100.00,WSW,242,10.0,16.0,98,-99.99,,,-99.99,,2013-02-20 01:02:00,
2013-02-19 17:11:00,38.0,37.0,-100.00,SW,234,10.0,16.0,98,-99.99,,,-99.99,,2013-02-20 01:11:00,
2013-02-19 17:21:00,38.0,37.0,-100.00,SW,229,10.0,17.0,98,-99.99,,,-99.99,,2013-02-20 01:21:00,
2013-02-19 17:31:00,38.0,37.0,-100.00,SW,229,11.0,17.0,98,-99.99,,,-99.99,,2013-02-20 01:31:00,
2013-02-19 17:41:00,38.0,37.0,-100.00,SW,225,11.0,15.0,98,-99.99,,,-99.99,,2013-02-20 01:41:00,
2013-02-19 17:51:00,38.0,37.0,-100.00,SW,224,9.0,12.0,98,-99.99,,,-99.99,,2013-02-20 01:51:00,
2013-02-19 18:01:00,38.0,37.0,-100.00,SW,235,7.0,14.0,98,-99.99,,,-99.99,,2013-02-20 02:01:00,
2013-02-19 18:11:00,38.0,37.0,-100.00,SW,227,7.0,14.0,98,-99.99,,,-99.99,,2013-02-20 02:11:00,
2013-02-19 18:21:00,38.0,37.0,-100.00,SW,219,8.0,13.0,97,-99.99,,,-99.99,,2013-02-20 02:21:00,
2013-02-19 18:31:00,38.0,37.0,-100.00,SW,220,8.0,17.0,96,-99.99,,,-99.99,,2013-02-20 02:31:00,
2013-02-19 18:41:00,38.0,37.0,-100.00,SW,223,11.0,16.0,95,-99.99,,,-99.99,,2013-02-20 02:41:00,
2013-02-19 18:52:00,38.0,37.0,-100.00,SW,224,10.0,15.0,95,-99.99,,,-99.99,,2013-02-20 02:52:00,
2013-02-19 19:01:00,38.0,36.0,-100.00,SW,222,8.0,13.0,94,-99.99,,,-99.99,,2013-02-20 03:01:00,
2013-02-19 19:12:00,38.0,36.0,-100.00,SW,218,9.0,17.0,94,-99.99,,,-99.99,,2013-02-20 03:12:00,
2013-02-19 19:21:00,37.0,35.0,-100.00,SW,222,9.0,16.0,94,-99.99,,,-99.99,,2013-02-20 03:21:00,
2013-02-19 19:32:00,37.0,36.0,-100.00,SW,228,10.0,15.0,95,-99.99,,,-99.99,,2013-02-20 03:32:00,
2013-02-19 19:41:00,37.0,36.0,-100.00,WSW,238,9.0,17.0,97,-99.99,,,-99.99,,2013-02-20 03:41:00,
2013-02-19 19:51:00,38.0,37.0,-100.00,WSW,237,10.0,16.0,97,-99.99,,,-99.99,,2013-02-20 03:51:00,
2013-02-19 20:01:00,38.0,37.0,-100.00,SW,234,10.0,14.0,98,-99.99,,,-99.99,,2013-02-20 04:01:00,
2013-02-19 20:11:00,38.0,37.0,-100.00,SW,226,8.0,15.0,98,-99.99,,,-99.99,,2013-02-20 04:11:00,
2013-02-19 20:21:00,38.0,37.0,-100.00,SW,227,9.0,13.0,98,-99.99,,,-99.99,,2013-02-20 04:21:00,
2013-02-19 20:31:00,38.0,37.0,-100.00,SW,227,9.0,21.0,98,-99.99,,,-99.99,,2013-02-20 04:31:00,
2013-02-19 20:41:00,37.0,36.0,-100.00,SW,230,13.0,23.0,98,-99.99,,,-99.99,,2013-02-20 04:41:00,
2013-02-19 20:51:00,37.0,36.0,-100.00,WSW,237,12.0,15.0,97,-99.99,,,-99.99,,2013-02-20 04:51:00,
2013-02-19 21:02:00,37.0,36.0,-100.00,SW,234,8.0,13.0,97,-99.99,,,-99.99,,2013-02-20 05:02:00,
2013-02-19 21:12:00,37.0,36.0,-100.00,SW,234,7.0,18.0,97,-99.99,,,-99.99,,2013-02-20 05:12:00,
2013-02-19 21:22:00,37.0,36.0,-100.00,WSW,238,9.0,22.0,97,-99.99,,,-99.99,,2013-02-20 05:22:00,
2013-02-19 21:32:00,37.0,36.0,-100.00,SW,234,9.0,15.0,97,-99.99,,,-99.99,,2013-02-20 05:32:00,
2013-02-19 21:42:00,37.0,36.0,-100.00,SW,232,8.0,14.0,97,-99.99,,,-99.99,,2013-02-20 05:42:00,
2013-02-19 21:52:00,37.0,36.0,-100.00,SW,236,9.0,13.0,97,-99.99,,,-99.99,,2013-02-20 05:52:00,
2013-02-19 22:01:00,37.0,36.0,-100.00,SW,236,9.0,13.0,97,-99.99,,,-99.99,,2013-02-20 06:01:00,
2013-02-19 22:11:00,37.0,36.0,-100.00,SW,223,7.0,10.0,98,-99.99,,,-99.99,,2013-02-20 06:11:00,
2013-02-19 22:21:00,37.0,36.0,-100.00,SW,222,6.0,11.0,98,-99.99,,,-99.99,,2013-02-20 06:21:00,
2013-02-19 22:31:00,38.0,37.0,-100.00,SW,217,8.0,13.0,96,-99.99,,,-99.99,,2013-02-20 06:31:00,
2013-02-19 22:42:00,38.0,36.0,-100.00,SSW,205,8.0,12.0,94,-99.99,,,-99.99,,2013-02-20 06:42:00,
2013-02-19 22:51:00,38.0,36.0,-100.00,South,191,6.0,9.0,94,-99.99,,,-99.99,,2013-02-20 06:51:00,
2013-02-19 23:01:00,38.0,37.0,-100.00,South,182,4.0,11.0,96,-99.99,,,-99.99,,2013-02-20 07:01:00,
2013-02-19 23:11:00,37.0,36.0,-100.00,SSW,201,5.0,13.0,96,-99.99,,,-99.99,,2013-02-20 07:11:00,
2013-02-19 23:21:00,37.0,36.0,-100.00,SW,216,6.0,15.0,96,-99.99,,,-99.99,,2013-02-20 07:21:00,
2013-02-19 23:31:00,36.0,35.0,-100.00,SW,225,9.0,15.0,96,-99.99,,,-99.99,,2013-02-20 07:31:00,
2013-02-19 23:41:00,36.0,35.0,-100.00,SW,225,9.0,15.0,96,-99.99,,,-99.99,,2013-02-20 07:41:00,
2013-02-19 23:51:00,36.0,35.0,-100.00,SW,229,10.0,18.0,96,-99.99,,,-99.99,,2013-02-20 07:51:00,